sat.trackr.live / text

‹ back to catalog

STARLINK-35346

NORAD 66179 · 2025-243C

PAYLOAD ACTIVE UNKNOWN

§ Identity

Operator
Country
US
Launch date
2025-10-26
Launch site
AFETR
Launch vehicle
Mass (kg)
RCS (m²)

Purposes: comms

External: N2YO · Heavens-Above · Gunter

§ Orbital elements

Epoch: 2026-09-20T16:51:31.400928Z

Period
93.85 min
Inclination
53.1592°
Eccentricity
0.0001348
Mean motion
15.34406593 rev/d
Perigee alt
461.8 km
Apogee alt
463.6 km
Semi-major
6,840.8 km
B*
7.0768e-4
RAAN
56.4216°
Arg perigee
100.6842°
Mean anomaly
259.4313°
Rev number
5,055

§ Raw data

STARLINK-353461 66179U 25243C   26263.70244677  .00023614  00000+0  70768-3 0  99972 66179  53.1592  56.4216 0001348 100.6842 259.4313 15.34406593 50559

JSON: /api/v1/satellites/66179 · /tle

For live sub-satellite position, see the globe view (requires WebGL).

§ Visibility from observer

Set your observer location to see the next 7 days of passes ≥ 10°. The values pass through the URL so the page stays shareable.

No JS? Fill the form by hand. The geolocation button needs JavaScript.